�N����,����,����,����,����,�C��,���x,�~����,���Ǝ���,�S�V����,�ő�u�ԕ���,,,,,
,,,,,,,,,,����,����,����,�N��,,
yyyy/mm/dd,hh:mm:ss,(16),16����,m/s,��,%,mm,min,KW/�u,(16),16����,m/s,Time,,
2012/2/1,1:00:00,293,���k��,2.8,-18.4,87,0,0,0.01,293,���k��,4.3,59,,
2012/2/1,2:00:00,293,���k��,2.3,-19,87.5,0,0,0.01,293,���k��,4.3,0,,
2012/2/1,3:00:00,270,��,1.8,-22.6,83.7,0,0,0.01,270,��,4.2,45,,
2012/2/1,4:00:00,270,��,2,-20.9,86.9,0,0,0.01,248,���쐼,4,28,,
2012/2/1,5:00:00,293,���k��,2.5,-22.1,87,0,0,0.01,270,��,3.4,54,,
2012/2/1,6:00:00,315,�k��,1.2,-21.6,85.3,0,0,0.01,293,���k��,2.8,6,,
2012/2/1,7:00:00,293,���k��,2.2,-21.1,84.8,0,0,0.01,270,��,4.4,30,,
2012/2/1,8:00:00,315,�k��,2.7,-16.2,88.6,0,3,0.07,293,���k��,4.7,27,,
2012/2/1,9:00:00,293,���k��,2.4,-14.1,81.7,0,59,0.17,315,�k��,4.9,23,,
2012/2/1,10:00:00,315,�k��,2.5,-10.1,72,0,60,0.22,338,�k�k��,4.2,51,,
2012/2/1,11:00:00,315,�k��,0.9,-8.8,68.5,0,60,0.25,338,�k�k��,4.1,31,,
2012/2/1,12:00:00,293,���k��,2.1,-9.5,72.5,0,60,0.29,23,�k�k��,3.9,38,,
2012/2/1,13:00:00,315,�k��,1.1,-8.2,63.9,0,60,0.23,338,�k�k��,2.6,38,,
2012/2/1,14:00:00,338,�k�k��,1.9,-8.1,64.6,0,60,0.16,338,�k�k��,2.7,56,,
2012/2/1,15:00:00,315,�k��,2.2,-8,63.7,0,38,0.13,315,�k��,3.3,59,,
2012/2/1,16:00:00,315,�k��,2.6,-8.3,66.2,0,0,0.07,315,�k��,4.2,37,,
2012/2/1,17:00:00,315,�k��,2.7,-8.5,66.5,0,0,0.01,315,�k��,4.9,2,,
2012/2/1,18:00:00,315,�k��,4.3,-8.9,74.9,0,0,0.01,315,�k��,6.8,47,,
2012/2/1,19:00:00,315,�k��,5.2,-9.6,89.1,0,0,0.01,338,�k�k��,9,55,,
2012/2/1,20:00:00,315,�k��,4.5,-9.3,87.3,0,0,0.01,315,�k��,9.7,3,,
2012/2/1,21:00:00,338,�k�k��,4.2,-9,84.2,0,0,0.01,315,�k��,8,53,,
2012/2/1,22:00:00,338,�k�k��,4.1,-9,85.6,0,0,0.01,315,�k��,8.6,26,,
2012/2/1,23:00:00,315,�k��,4.7,-9.1,88,0,0,0.01,315,�k��,8,51,,
2012/2/1,0:00:00,315,�k��,5.3,-9.1,90,0,0,0.01,315,�k��,9.1,52,,
2012/2/2,1:00:00,315,�k��,4.8,-9,87.2,0,0,0.01,315,�k��,8.9,5,,
2012/2/2,2:00:00,338,�k�k��,5.1,-9,85.4,0,0,0.01,338,�k�k��,9.2,41,,
2012/2/2,3:00:00,338,�k�k��,5.2,-9.1,86.9,0,0,0.01,338,�k�k��,9.4,52,,
2012/2/2,4:00:00,338,�k�k��,4.3,-9.1,82.7,0,0,0.01,338,�k�k��,9,16,,
2012/2/2,5:00:00,338,�k�k��,4.3,-9,79.6,0,0,0.01,315,�k��,8.9,29,,
2012/2/2,6:00:00,338,�k�k��,4.3,-9,70.6,0,0,0.01,338,�k�k��,9.5,22,,
2012/2/2,7:00:00,338,�k�k��,4,-9.4,67.4,0,0,0.01,315,�k��,8.7,55,,
2012/2/2,8:00:00,338,�k�k��,3.9,-9.3,64.4,0,0,0.07,23,�k�k��,8,54,,
2012/2/2,9:00:00,338,�k�k��,4.7,-8.9,58.8,0,56,0.25,338,�k�k��,7.2,57,,
2012/2/2,10:00:00,315,�k��,3.8,-8.3,56.2,0,60,0.47,315,�k��,8.3,3,,
2012/2/2,11:00:00,338,�k�k��,4.2,-7.3,52.9,0.5,60,0.58,315,�k��,7.6,50,,
2012/2/2,12:00:00,338,�k�k��,4,-6,42.7,0,60,0.63,315,�k��,8.2,24,,
2012/2/2,13:00:00,360,�k,4.2,-5.2,37.6,0,60,0.58,360,�k,9,38,,
2012/2/2,14:00:00,338,�k�k��,2.5,-4.6,37.5,0,60,0.53,315,�k��,8.4,46,,
2012/2/2,15:00:00,338,�k�k��,3.9,-5.5,35.1,0,60,0.38,315,�k��,9,14,,
2012/2/2,16:00:00,338,�k�k��,2.7,-6.6,38.1,0,55,0.2,360,�k,7.7,9,,
2012/2/2,17:00:00,270,��,1.4,-12.3,48.2,0,0,0.04,315,�k��,5.4,11,,
2012/2/2,18:00:00,270,��,2.3,-12.6,58.7,0,0,0.01,248,���쐼,3.9,32,,
2012/2/2,19:00:00,203,��쐼,1.8,-18.2,59,0,0,0.01,315,�k��,4.3,30,,
2012/2/2,20:00:00,248,���쐼,1.8,-19.5,70.5,0,0,0.01,315,�k��,3.5,20,,
2012/2/2,21:00:00,293,���k��,1.6,-19.7,72,0,0,0.01,293,���k��,2.8,10,,
2012/2/2,22:00:00,293,���k��,2,-21.5,80.8,0,0,0.01,293,���k��,2.9,25,,
2012/2/2,23:00:00,293,���k��,2.5,-21.8,78.8,0,0,0.01,270,��,3.5,54,,
2012/2/2,0:00:00,293,���k��,2,-21.9,80.8,0,0,0.01,293,���k��,3,46,,
2012/2/3,1:00:00,293,���k��,2.3,-23.1,82.5,0,0,0.01,270,��,4.1,28,,
2012/2/3,2:00:00,293,���k��,2.6,-22.8,81.7,0,0,0.01,270,��,4.3,44,,
2012/2/3,3:00:00,293,���k��,1.8,-22.6,83.4,0,0,0.01,270,��,3.8,26,,
2012/2/3,4:00:00,293,���k��,2.1,-23.1,81.5,0,0,0.01,293,���k��,3.8,20,,
2012/2/3,5:00:00,293,���k��,3.1,-23.1,83.9,0,0,0.01,293,���k��,4.1,42,,
2012/2/3,6:00:00,293,���k��,1.8,-23.1,82.6,0,0,0.01,293,���k��,4.2,33,,
2012/2/3,7:00:00,293,���k��,2.7,-22.8,84,0,0,0.01,270,��,4.1,16,,
2012/2/3,8:00:00,293,���k��,2.2,-20.8,81.1,0,34,0.13,315,�k��,5,11,,
2012/2/3,9:00:00,270,��,2.1,-16.2,73.5,0,60,0.32,293,���k��,3.6,19,,
2012/2/3,10:00:00,23,�k�k��,0.8,-11.4,65.4,0,60,0.49,270,��,1.9,11,,
2012/2/3,11:00:00,45,�k��,1.2,-7.6,72.8,0,60,0.59,23,�k�k��,2,10,,
2012/2/3,12:00:00,90,��,1.4,-3.8,70.4,0,60,0.64,135,�쓌,2.9,30,,
2012/2/3,13:00:00,90,��,2.5,-4.4,69.4,0,60,0.62,90,��,4.5,58,,
2012/2/3,14:00:00,113,���쓌,1.7,-4.1,55.1,0,60,0.48,113,���쓌,4.3,7,,
2012/2/3,15:00:00,113,���쓌,0.9,-4,50.3,0,60,0.37,135,�쓌,2.6,32,,
2012/2/3,16:00:00,135,�쓌,0.7,-7.5,45.3,0,56,0.2,135,�쓌,2.3,5,,
2012/2/3,17:00:00,248,���쐼,1.9,-8.8,59.7,0,0,0.03,225,�쐼,3.8,59,,
2012/2/3,18:00:00,315,�k��,0.9,-12.7,68.4,0,0,0.01,270,��,3.8,2,,
2012/2/3,19:00:00,293,���k��,1.7,-15.6,78.7,0,0,0.01,270,��,2.8,53,,
2012/2/3,20:00:00,270,��,3.1,-17.4,75.8,0,0,0.01,293,���k��,3.7,42,,
2012/2/3,21:00:00,293,���k��,2.1,-17.2,82.4,0,0,0.01,293,���k��,4.2,9,,
2012/2/3,22:00:00,270,��,3.3,-19.2,82.5,0,0,0.01,270,��,4.6,56,,
2012/2/3,23:00:00,315,�k��,2.7,-19.7,84.1,0,0,0.01,270,��,4.5,10,,
2012/2/3,0:00:00,293,���k��,3.1,-19.5,83.3,0,0,0.01,315,�k��,5.3,51,,
2012/2/4,1:00:00,293,���k��,2.7,-20.3,87.4,0,0,0.01,270,��,4.5,37,,
2012/2/4,2:00:00,293,���k��,3.1,-18.9,88.8,0,0,0.01,293,���k��,5.2,50,,
2012/2/4,3:00:00,270,��,3,-20.6,86.5,0,0,0.01,270,��,6.1,17,,
2012/2/4,4:00:00,293,���k��,1.8,-21.1,85.4,0,0,0.01,270,��,4.9,13,,
2012/2/4,5:00:00,293,���k��,2.6,-20.3,86.1,0,0,0.01,270,��,6,53,,
2012/2/4,6:00:00,293,���k��,3.1,-18.8,87.9,0,0,0.01,293,���k��,6.2,25,,
2012/2/4,7:00:00,315,�k��,2.2,-17.4,87.4,0,0,0.01,293,���k��,4.7,37,,
2012/2/4,8:00:00,293,���k��,2.6,-16.5,88.1,0,27,0.09,293,���k��,4.5,23,,
2012/2/4,9:00:00,315,�k��,1.3,-14.1,78.7,0,60,0.24,315,�k��,4.6,16,,
2012/2/4,10:00:00,23,�k�k��,0.3,-10.9,70.1,0,60,0.48,293,���k��,2.9,3,,
2012/2/4,11:00:00,45,�k��,1.6,-6.9,70,0,60,0.58,23,�k�k��,3,11,,
2012/2/4,12:00:00,45,�k��,1.4,-4.9,74.3,0,60,0.63,45,�k��,2.3,47,,
2012/2/4,13:00:00,23,�k�k��,1.7,-3.9,79.1,0,60,0.64,45,�k��,3.4,35,,
2012/2/4,14:00:00,45,�k��,2.2,-3.5,76.3,0,60,0.48,45,�k��,3.6,28,,
2012/2/4,15:00:00,68,���k��,1.5,-4.7,79.3,0,59,0.32,90,��,3,12,,
2012/2/4,16:00:00,135,�쓌,0.3,-6,94.1,0,31,0.13,360,�k,2.2,10,,
2012/2/4,17:00:00,293,���k��,1.5,-11.9,93.4,0,0,0.02,293,���k��,2.5,59,,
2012/2/4,18:00:00,248,���쐼,2.1,-15.3,85,0,0,0.01,270,��,3.4,59,,
2012/2/4,19:00:00,315,�k��,1.3,-12.1,74.9,0,0,0.01,338,�k�k��,5.7,11,,
2012/2/4,20:00:00,225,�쐼,1.3,-13.1,92.8,0,0,0.01,203,��쐼,2.4,53,,
2012/2/4,21:00:00,248,���쐼,1.5,-14.9,90.3,0,0,0.01,293,���k��,4,46,,
2012/2/4,22:00:00,315,�k��,3.1,-9.8,92.8,0,0,0.01,338,�k�k��,6.4,44,,
2012/2/4,23:00:00,315,�k��,1.4,-10.1,92.4,0,0,0.01,315,�k��,3.8,5,,
2012/2/4,0:00:00,315,�k��,1.9,-10.3,84.7,0,0,0.01,315,�k��,3.4,49,,
2012/2/5,1:00:00,315,�k��,1.8,-15,91.1,0,0,0.01,360,�k,3.5,5,,
2012/2/5,2:00:00,270,��,1.3,-17.6,90.1,0,0,0.01,270,��,2.9,41,,
2012/2/5,3:00:00,270,��,1.4,-20,86.6,0,0,0.01,293,���k��,2.9,46,,
2012/2/5,4:00:00,270,��,1,-21.1,82.6,0,0,0.01,248,���쐼,2.2,39,,
2012/2/5,5:00:00,293,���k��,2.1,-20.1,86.9,0,0,0.01,293,���k��,3.2,33,,
2012/2/5,6:00:00,293,���k��,2.6,-18.9,85.3,0,0,0.01,270,��,3.4,32,,
2012/2/5,7:00:00,293,���k��,2.5,-19.7,85.8,0,0,0.02,270,��,4,45,,
2012/2/5,8:00:00,293,���k��,1.3,-16.9,85.6,0,37,0.14,270,��,3.7,47,,
2012/2/5,9:00:00,270,��,0.8,-13.8,71,0,60,0.33,270,��,3.6,14,,
2012/2/5,10:00:00,23,�k�k��,0.3,-8.9,62.2,0,60,0.49,270,��,1.9,10,,
2012/2/5,11:00:00,135,�쓌,1.5,-3.3,46.1,0,60,0.6,180,��,2.9,51,,
2012/2/5,12:00:00,113,���쓌,1.2,-2.3,47.9,0,60,0.64,113,���쓌,3.8,22,,
2012/2/5,13:00:00,113,���쓌,2.5,-2.5,51.2,0,60,0.62,113,���쓌,4.3,37,,
2012/2/5,14:00:00,113,���쓌,3.1,-2.5,53.3,0,60,0.54,90,��,4.2,51,,
2012/2/5,15:00:00,90,��,2.6,-3.5,59.9,0,60,0.39,113,���쓌,4.2,26,,
2012/2/5,16:00:00,45,�k��,1.2,-4,62,0,57,0.21,90,��,3.3,11,,
2012/2/5,17:00:00,180,��,0.3,-10.9,64.4,0,0,0.03,45,�k��,1.7,6,,
2012/2/5,18:00:00,293,���k��,0.5,-9.5,85.5,0,0,0.01,248,���쐼,2.8,43,,
2012/2/5,19:00:00,293,���k��,0.7,-12.2,83.4,0,0,0.01,45,�k��,2.7,41,,
2012/2/5,20:00:00,270,��,2,-15.9,82.9,0,0,0.01,270,��,2.7,54,,
2012/2/5,21:00:00,270,��,2.7,-12.9,81,0,0,0.01,270,��,4.4,42,,
2012/2/5,22:00:00,248,���쐼,3,-12.9,78.1,0,0,0.01,293,���k��,4.4,47,,
2012/2/5,23:00:00,270,��,3,-13.5,85.2,0,0,0.01,270,��,4.3,59,,
2012/2/5,0:00:00,293,���k��,1.6,-13.7,83.9,0,0,0.01,270,��,4.5,38,,
2012/2/6,1:00:00,270,��,2.1,-15.2,87.7,0,0,0.01,270,��,3.7,42,,
2012/2/6,2:00:00,293,���k��,1.7,-15,87.5,0,0,0.01,270,��,4.4,47,,
2012/2/6,3:00:00,293,���k��,2.6,-14,89.7,0,0,0.01,270,��,4.3,25,,
2012/2/6,4:00:00,293,���k��,2.6,-16.3,89.2,0,0,0.01,270,��,4.1,36,,
2012/2/6,5:00:00,293,���k��,1.6,-17.7,89.1,0,0,0.01,270,��,3.2,7,,
2012/2/6,6:00:00,293,���k��,2.7,-18.3,89.4,0,0,0.01,270,��,3.3,28,,
2012/2/6,7:00:00,270,��,2.4,-18.1,87.5,0,0,0.01,270,��,3.9,44,,
2012/2/6,8:00:00,293,���k��,2.4,-14.1,90.6,0,33,0.13,293,���k��,3.3,48,,
2012/2/6,9:00:00,293,���k��,0.8,-11.2,79.5,0,60,0.31,293,���k��,2.8,32,,
2012/2/6,10:00:00,45,�k��,1.2,-3.7,73.7,0,60,0.47,113,���쓌,2.2,26,,
2012/2/6,11:00:00,135,�쓌,2,1.7,61.2,0,60,0.58,180,��,4.8,54,,
2012/2/6,12:00:00,158,��쓌,4.4,1.7,58.6,0,60,0.62,158,��쓌,8.7,37,,
2012/2/6,13:00:00,158,��쓌,4.9,1.6,66.2,0,60,0.6,158,��쓌,8.7,53,,
2012/2/6,14:00:00,180,��,4.6,1.3,71.5,0,60,0.48,158,��쓌,9.3,49,,
2012/2/6,15:00:00,203,��쐼,4,1,78.7,0,60,0.29,180,��,8.5,4,,
2012/2/6,16:00:00,180,��,4.2,0.7,79.9,0,22,0.12,180,��,8,23,,
2012/2/6,17:00:00,180,��,3.3,0.4,86.9,0,0,0.03,180,��,8.2,16,,
2012/2/6,18:00:00,203,��쐼,3.9,0.4,91.9,0,0,0.01,180,��,8.1,30,,
2012/2/6,19:00:00,203,��쐼,3,0.7,92.3,0,0,0.01,203,��쐼,6.3,31,,
2012/2/6,20:00:00,203,��쐼,3.3,1,93.3,0,0,0.01,203,��쐼,6.7,25,,
2012/2/6,21:00:00,180,��,3,1.6,85.7,0,0,0.01,225,�쐼,8.1,6,,
2012/2/6,22:00:00,158,��쓌,2.9,2.3,79,0,0,0.01,158,��쓌,6.7,51,,
2012/2/6,23:00:00,180,��,4.3,1.7,88.6,0,0,0.01,203,��쐼,9.2,46,,
2012/2/6,0:00:00,180,��,4.2,1.1,91.8,0,0,0.01,180,��,10.8,7,,
2012/2/7,1:00:00,248,���쐼,1.2,-3.1,95.3,0,0,0.01,158,��쓌,3.7,0,,
2012/2/7,2:00:00,270,��,1.3,-4.4,95.9,0,0,0.01,293,���k��,2.5,32,,
2012/2/7,3:00:00,315,�k��,1.3,-2.6,91,0,0,0.01,293,���k��,3.3,14,,
2012/2/7,4:00:00,315,�k��,2.5,-2.4,89.5,0,0,0.01,315,�k��,3.7,57,,
2012/2/7,5:00:00,315,�k��,1.5,-2.3,85.7,0,0,0.01,315,�k��,3,37,,
2012/2/7,6:00:00,315,�k��,1.5,-2.1,84.8,0,0,0.01,338,�k�k��,3.1,23,,
2012/2/7,7:00:00,315,�k��,2.4,-2.2,84,0,0,0.01,315,�k��,3.4,59,,
2012/2/7,8:00:00,315,�k��,0.6,-1.9,87,0,0,0.04,338,�k�k��,3.8,20,,
2012/2/7,9:00:00,315,�k��,1.9,-1.4,88,0,9,0.09,315,�k��,2.9,57,,
2012/2/7,10:00:00,338,�k�k��,1.9,-0.3,83.7,0,60,0.22,338,�k�k��,4.4,30,,
2012/2/7,11:00:00,45,�k��,0.8,2.6,84.6,0,60,0.4,315,�k��,3,2,,
2012/2/7,12:00:00,135,�쓌,2,0.4,89,0,60,0.45,90,��,3.5,16,,
2012/2/7,13:00:00,113,���쓌,1.5,0.3,93.9,0,60,0.43,113,���쓌,3,45,,
2012/2/7,14:00:00,113,���쓌,0.6,0.3,95.6,0,60,0.23,113,���쓌,2.9,8,,
2012/2/7,15:00:00,23,�É�,0,0.5,95.2,0,49,0.15,113,���쓌,2,13,,
2012/2/7,16:00:00,338,�k�k��,0.3,0.4,95.3,0,10,0.1,338,�k�k��,2.1,51,,
2012/2/7,17:00:00,248,�É�,0.1,-1.5,96.6,0,0,0.03,293,���k��,1.5,26,,
2012/2/7,18:00:00,270,��,1.2,-5.9,95.4,0,0,0.01,270,��,1.7,59,,
2012/2/7,19:00:00,225,�쐼,2.1,-5.9,97.9,0,0,0.01,225,�쐼,2.7,54,,
2012/2/7,20:00:00,315,�k��,2.2,-4.7,98.7,0,0,0.01,315,�k��,3.4,39,,
2012/2/7,21:00:00,293,���k��,1.3,-9,94.9,0,0,0.01,315,�k��,3.4,0,,
2012/2/7,22:00:00,315,�k��,2.2,-8.8,94.9,0,0,0.01,315,�k��,4.5,30,,
2012/2/7,23:00:00,293,���k��,2.2,-9.2,94.6,0,0,0.01,293,���k��,3.9,35,,
2012/2/7,0:00:00,293,���k��,2.5,-10.1,92.8,0,0,0.01,270,��,4.9,13,,
2012/2/8,1:00:00,293,���k��,1.2,-10.4,92.9,0,0,0.01,270,��,5.4,2,,
2012/2/8,2:00:00,315,�k��,1.2,-11.6,92.3,0,0,0.01,315,�k��,3,4,,
2012/2/8,3:00:00,248,���쐼,1.7,-8.6,93.8,0,0,0.01,270,��,4.6,51,,
2012/2/8,4:00:00,248,���쐼,2.1,-12.7,91.2,0,0,0.01,293,���k��,2.7,18,,
2012/2/8,5:00:00,270,��,1.6,-12.9,90.2,0,0,0.01,270,��,3.5,28,,
2012/2/8,6:00:00,270,��,3.4,-6.2,92.6,0,0,0.01,270,��,7.3,37,,
2012/2/8,7:00:00,270,��,3.6,-7.3,71.3,0,0,0.02,248,���쐼,6.5,22,,
2012/2/8,8:00:00,248,���쐼,8.4,-4.4,53.5,0,4,0.09,270,��,12.7,54,,
2012/2/8,9:00:00,270,��,5.8,-4.5,57.2,0,48,0.27,293,���k��,15.9,28,,
2012/2/8,10:00:00,270,��,5.3,-3.9,55.8,0,60,0.49,270,��,12.2,52,,
2012/2/8,11:00:00,270,��,7.7,-4,58.4,0,60,0.6,293,���k��,12.7,58,,
2012/2/8,12:00:00,270,��,8.1,-3.4,62.1,0,60,0.64,270,��,15.7,30,,
2012/2/8,13:00:00,270,��,6.4,-3.1,55.4,0,60,0.52,270,��,12.2,1,,
2012/2/8,14:00:00,270,��,6.3,-3,55.3,0,60,0.55,248,���쐼,9.8,50,,
2012/2/8,15:00:00,270,��,5.5,-3.7,53.2,0,60,0.4,270,��,11,26,,
2012/2/8,16:00:00,270,��,3.6,-5,59.7,0,60,0.22,270,��,8.6,13,,
2012/2/8,17:00:00,270,��,2.3,-9,70.2,0,3,0.04,225,�쐼,4.6,31,,
2012/2/8,18:00:00,225,�쐼,1.5,-10,79.4,0,0,0.01,203,��쐼,2.8,22,,
2012/2/8,19:00:00,248,���쐼,3.6,-9.3,66.9,0,0,0.01,248,���쐼,6,54,,
2012/2/8,20:00:00,293,���k��,3.6,-11.5,69.1,0,0,0.01,270,��,5.5,33,,
2012/2/8,21:00:00,293,���k��,4.1,-10.3,67.8,0,0,0.01,293,���k��,6.7,40,,
2012/2/8,22:00:00,293,���k��,1.4,-15.2,79.5,0,0,0.01,338,�k�k��,4.4,1,,
2012/2/8,23:00:00,270,��,3.8,-9.9,63.3,0,0,0.01,270,��,5.5,59,,
2012/2/8,0:00:00,270,��,3,-12.5,62.8,0,0,0.01,270,��,6,15,,
2012/2/9,1:00:00,315,�k��,1.1,-18.5,74.9,0,0,0.01,293,���k��,4.1,2,,
2012/2/9,2:00:00,315,�k��,2.6,-16.2,70.5,0,0,0.01,315,�k��,3.9,51,,
2012/2/9,3:00:00,338,�k�k��,1.1,-18.4,83,0,0,0.01,315,�k��,3.1,11,,
2012/2/9,4:00:00,338,�k�k��,2.5,-14.1,65,0,0,0.01,338,�k�k��,4.1,51,,
2012/2/9,5:00:00,293,���k��,2.6,-19.4,78,0,0,0.01,293,���k��,3.5,58,,
2012/2/9,6:00:00,293,���k��,2.7,-20,82.7,0,0,0.01,293,���k��,4,31,,
2012/2/9,7:00:00,293,���k��,2.5,-20.8,82.9,0,0,0.02,293,���k��,3.5,15,,
2012/2/9,8:00:00,293,���k��,2.5,-16.3,69.4,0,40,0.15,248,���쐼,4.1,29,,
2012/2/9,9:00:00,293,���k��,1.9,-11.9,65.8,0,60,0.34,293,���k��,3.6,18,,
2012/2/9,10:00:00,293,���k��,0.6,-7.4,60.9,0,60,0.51,315,�k��,2.9,34,,
2012/2/9,11:00:00,23,�k�k��,0.3,-2.2,48.3,0,60,0.62,225,�쐼,1.9,33,,
2012/2/9,12:00:00,180,��,2.4,-3.5,43.4,0,60,0.67,135,�쓌,6.3,38,,
2012/2/9,13:00:00,270,��,6,-3.2,44.2,0,60,0.66,293,���k��,8.4,46,,
2012/2/9,14:00:00,293,���k��,3.5,-3.6,38.1,0,60,0.57,270,��,8.7,0,,
2012/2/9,15:00:00,248,���쐼,4.1,-4.2,57.2,0,60,0.42,248,���쐼,7.5,23,,
2012/2/9,16:00:00,225,�쐼,2.5,-5.1,54.5,0,60,0.23,270,��,6.4,2,,
2012/2/9,17:00:00,270,��,5.2,-5.6,63.1,0,4,0.04,270,��,9,36,,
2012/2/9,18:00:00,270,��,3.6,-7.3,67,0,0,0.01,270,��,6.3,5,,
2012/2/9,19:00:00,270,��,4.7,-8.2,66.1,0,0,0.01,270,��,6.3,59,,
2012/2/9,20:00:00,293,���k��,1.8,-11.2,74.7,0,0,0.01,270,��,7.4,1,,
2012/2/9,21:00:00,270,��,5.4,-9.9,61.7,0,0,0.01,270,��,7,50,,
2012/2/9,22:00:00,270,��,3.7,-9,60.9,0,0,0.01,270,��,6.2,25,,
2012/2/9,23:00:00,248,���쐼,3.8,-10.1,57.9,0,0,0.01,248,���쐼,5.5,58,,
2012/2/9,0:00:00,203,��쐼,1.1,-18,67.5,0,0,0.01,248,���쐼,5.6,1,,
2012/2/10,1:00:00,315,�k��,2.1,-17.2,79.9,0,0,0.01,270,��,3.2,42,,
2012/2/10,2:00:00,270,��,2.9,-20.5,77,0,0,0.01,248,���쐼,4.4,12,,
2012/2/10,3:00:00,293,���k��,2.7,-20.3,83.1,0,0,0.01,270,��,4.3,47,,
2012/2/10,4:00:00,293,���k��,2.5,-21.1,80.1,0,0,0.01,270,��,5,29,,
2012/2/10,5:00:00,270,��,2.6,-22.3,81.8,0,0,0.01,270,��,3.6,24,,
2012/2/10,6:00:00,293,���k��,2.7,-22.7,84.6,0,0,0.01,293,���k��,4.5,56,,
2012/2/10,7:00:00,270,��,3.3,-13.3,74.7,0,0,0.02,248,���쐼,5.4,55,,
2012/2/10,8:00:00,248,���쐼,4.1,-8.8,49.8,0,43,0.16,248,���쐼,5.9,54,,
2012/2/10,9:00:00,248,���쐼,4.5,-6.7,39.5,0,60,0.36,270,��,6.9,57,,
2012/2/10,10:00:00,270,��,5.9,-5.8,41.9,0,60,0.52,248,���쐼,11.4,50,,
2012/2/10,11:00:00,270,��,5.9,-5.5,43.3,0,60,0.62,225,�쐼,10.4,40,,
2012/2/10,12:00:00,248,���쐼,4.7,-5.1,47.2,0,60,0.68,248,���쐼,9.1,11,,
2012/2/10,13:00:00,315,�k��,2.4,-4.1,35.9,0,60,0.63,248,���쐼,7.3,3,,
2012/2/10,14:00:00,338,�k�k��,3.6,-5.5,49.7,0,60,0.42,338,�k�k��,7.9,50,,
2012/2/10,15:00:00,315,�k��,5,-6.5,58.1,0,42,0.19,293,���k��,10.3,48,,
2012/2/10,16:00:00,315,�k��,2.4,-6.6,58.1,0,36,0.14,315,�k��,8,1,,
2012/2/10,17:00:00,293,���k��,4.1,-7.6,50,0,3,0.04,315,�k��,7.2,47,,
2012/2/10,18:00:00,293,���k��,3,-10.4,57.2,0,0,0.01,293,���k��,9.1,14,,
2012/2/10,19:00:00,270,��,1.7,-12.9,60.4,0,0,0.01,293,���k��,4.7,36,,
2012/2/10,20:00:00,270,��,0.8,-17.1,71.8,0,0,0.01,293,���k��,2.7,13,,
2012/2/10,21:00:00,270,��,1.2,-19.9,69.7,0,0,0.01,270,��,2.5,16,,
2012/2/10,22:00:00,293,���k��,1.7,-20.3,80,0,0,0.01,293,���k��,2.3,51,,
2012/2/10,23:00:00,293,���k��,2.1,-19,80.7,0,0,0.01,293,���k��,2.9,25,,
2012/2/10,0:00:00,293,���k��,1.9,-20.3,82.2,0,0,0.01,270,��,3.1,56,,
2012/2/11,1:00:00,315,�k��,2.2,-19.9,81,0,0,0.01,293,���k��,3.7,48,,
2012/2/11,2:00:00,293,���k��,2.9,-19.8,80.4,0,0,0.01,293,���k��,4.1,44,,
2012/2/11,3:00:00,315,�k��,2.5,-20.9,81.1,0,0,0.01,293,���k��,5.2,40,,
2012/2/11,4:00:00,293,���k��,1.6,-20.7,79.7,0,0,0.01,338,�k�k��,3.6,0,,
2012/2/11,5:00:00,293,���k��,2.8,-20.8,85.3,0,0,0.01,270,��,4.5,23,,
2012/2/11,6:00:00,293,���k��,3.1,-21.1,83.3,0,0,0.01,293,���k��,4.2,50,,
2012/2/11,7:00:00,293,���k��,2.9,-21.6,80.4,0,0,0.02,293,���k��,5.1,49,,
2012/2/11,8:00:00,293,���k��,2.3,-18.3,74.1,0,43,0.16,315,�k��,5.6,33,,
2012/2/11,9:00:00,360,�k,0.3,-15,66.7,0,60,0.36,338,�k�k��,2.7,3,,
2012/2/11,10:00:00,68,���k��,0.4,-5.8,49.5,0,60,0.53,270,��,2.9,8,,
2012/2/11,11:00:00,90,��,2.8,-5.6,50.2,0,60,0.63,68,���k��,4.8,55,,
2012/2/11,12:00:00,90,��,1.5,-4.2,58,0,60,0.68,113,���쓌,4.1,48,,
2012/2/11,13:00:00,270,��,0.8,-3.8,31.1,0,60,0.7,113,���쓌,4.3,9,,
2012/2/11,14:00:00,338,�k�k��,1.8,-4.4,30.3,0,60,0.58,315,�k��,6.2,29,,
2012/2/11,15:00:00,338,�k�k��,2.4,-4.8,37.5,0,53,0.31,360,�k,4.6,52,,
2012/2/11,16:00:00,293,���k��,3.7,-6.1,44.5,0,60,0.32,248,���쐼,8.2,23,,
2012/2/11,17:00:00,248,���쐼,2.5,-9.3,56,0,5,0.04,270,��,5.7,1,,
2012/2/11,18:00:00,315,�k��,1.3,-14.9,66.8,0,0,0.01,270,��,3.5,4,,
2012/2/11,19:00:00,270,��,1.3,-14.8,70.3,0,0,0.01,270,��,4.1,14,,
2012/2/11,20:00:00,293,���k��,2.5,-16.4,73.6,0,0,0.01,293,���k��,3.6,52,,
2012/2/11,21:00:00,293,���k��,2.5,-17.7,73.8,0,0,0.01,315,�k��,3.7,4,,
2012/2/11,22:00:00,293,���k��,2.6,-20.1,78.8,0,0,0.01,293,���k��,4.4,10,,
2012/2/11,23:00:00,293,���k��,1.9,-20.4,76.3,0,0,0.01,293,���k��,3.4,6,,
2012/2/11,0:00:00,270,��,2.4,-20.5,76,0,0,0.01,270,��,2.9,55,,
2012/2/12,1:00:00,248,���쐼,4,-16.9,84.4,0,0,0.01,248,���쐼,5.9,58,,
2012/2/12,2:00:00,315,�k��,1.8,-21.8,73.8,0,0,0.01,248,���쐼,5.2,12,,
2012/2/12,3:00:00,293,���k��,2.5,-21.5,82.6,0,0,0.01,293,���k��,3.7,25,,
2012/2/12,4:00:00,270,��,1.9,-22.8,82.9,0,0,0.01,293,���k��,3.1,1,,
2012/2/12,5:00:00,293,���k��,2.7,-21.1,86,0,0,0.01,293,���k��,4.1,58,,
2012/2/12,6:00:00,270,��,2.6,-21,80.9,0,0,0.01,270,��,4.6,21,,
2012/2/12,7:00:00,270,��,2.8,-22,81.3,0,0,0.02,293,���k��,5.1,14,,
2012/2/12,8:00:00,270,��,3,-18.7,74.8,0,46,0.17,270,��,3.9,51,,
2012/2/12,9:00:00,315,�É�,0.1,-15,68.9,0,60,0.36,270,��,3.5,10,,
2012/2/12,10:00:00,293,���k��,2.1,-6.3,40.1,0,60,0.51,293,���k��,6.6,59,,
2012/2/12,11:00:00,293,���k��,5.9,-5.3,32.4,0,60,0.59,270,��,11.2,11,,
2012/2/12,12:00:00,293,���k��,6.3,-5.5,33.2,0,60,0.54,293,���k��,13,35,,
2012/2/12,13:00:00,293,���k��,5.4,-5.2,37.8,0,60,0.69,293,���k��,11.8,15,,
2012/2/12,14:00:00,293,���k��,4.1,-6.5,39,0,56,0.31,315,�k��,9,5,,
2012/2/12,15:00:00,293,���k��,6,-6,44,0,60,0.43,293,���k��,11.5,44,,
2012/2/12,16:00:00,248,���쐼,5.1,-6.9,51.3,0,59,0.32,270,��,10.9,8,,
2012/2/12,17:00:00,270,��,3.2,-9.2,54.8,0,0,0.04,270,��,7.9,3,,
2012/2/12,18:00:00,293,���k��,2.9,-12.2,57.7,0,0,0.01,293,���k��,5.2,21,,
2012/2/12,19:00:00,248,���쐼,2.1,-11.8,59,0,0,0.01,293,���k��,4.7,35,,
2012/2/12,20:00:00,293,���k��,1.7,-11.2,60.4,0,0,0.01,270,��,4.5,4,,
2012/2/12,21:00:00,135,�쓌,0.8,-13.7,68,0,0,0.01,45,�k��,1.8,30,,
2012/2/12,22:00:00,23,�k�k��,0.4,-16.5,67.4,0,0,0.01,360,�k,1.6,6,,
2012/2/12,23:00:00,248,���쐼,0.3,-18.5,82.6,0,0,0.01,68,���k��,8.4,11,,
2012/2/12,0:00:00,293,���k��,1.7,-16.6,73,0,0,0.01,270,��,3.2,31,,
2012/2/13,1:00:00,293,���k��,1.3,-19.6,80.2,0,0,0.01,270,��,3.6,2,,
2012/2/13,2:00:00,293,���k��,1.6,-21.5,80.8,0,0,0.01,293,���k��,3.3,34,,
2012/2/13,3:00:00,270,��,2.7,-22.2,81.5,0,0,0.01,293,���k��,4,57,,
2012/2/13,4:00:00,293,���k��,2.2,-21.2,82.8,0,0,0.01,293,���k��,3.5,35,,
2012/2/13,5:00:00,315,�k��,3,-19.5,80.9,0,0,0.01,293,���k��,4.3,39,,
2012/2/13,6:00:00,293,���k��,2.7,-19.8,82.5,0,0,0.01,293,���k��,4.3,56,,
2012/2/13,7:00:00,293,���k��,3.3,-20.2,81.1,0,0,0.02,293,���k��,4.4,37,,
2012/2/13,8:00:00,270,��,2.1,-17.9,74,0,46,0.17,270,��,4,7,,
2012/2/13,9:00:00,315,�k��,1,-13,67.2,0,60,0.37,293,���k��,3,6,,
2012/2/13,10:00:00,293,���k��,1.1,-8.3,61.8,0,60,0.53,293,���k��,1.6,49,,
2012/2/13,11:00:00,113,���쓌,2.7,-4.6,44.6,0,60,0.64,113,���쓌,4.1,57,,
2012/2/13,12:00:00,113,���쓌,3.4,-4.1,48.7,0,60,0.67,158,��쓌,5.5,36,,
2012/2/13,13:00:00,135,�쓌,2.5,-3.4,42.5,0,60,0.65,113,���쓌,5.4,38,,
2012/2/13,14:00:00,158,��쓌,1.4,-3.4,41.6,0,60,0.57,113,���쓌,4.6,7,,
2012/2/13,15:00:00,135,�쓌,2.2,-2.9,48.5,0,60,0.42,113,���쓌,3.9,46,,
2012/2/13,16:00:00,158,��쓌,1.9,-3.5,54,0,60,0.24,113,���쓌,4.4,5,,
2012/2/13,17:00:00,180,��,0.7,-6.2,57.6,0,5,0.06,158,��쓌,3.6,10,,
2012/2/13,18:00:00,293,���k��,1,-15.1,70.6,0,0,0.01,293,���k��,1.6,59,,
2012/2/13,19:00:00,293,���k��,1.2,-13.6,76.7,0,0,0.01,293,���k��,2.5,45,,
2012/2/13,20:00:00,293,���k��,1.3,-13.9,79.7,0,0,0.01,293,���k��,2.5,58,,
2012/2/13,21:00:00,315,�k��,1.6,-13.6,79.9,0,0,0.01,315,�k��,2.8,43,,
2012/2/13,22:00:00,293,���k��,2.4,-15,84.2,0,0,0.01,270,��,4,46,,
2012/2/13,23:00:00,270,��,2.5,-14.6,87.3,0,0,0.01,270,��,3.8,23,,
2012/2/13,0:00:00,293,���k��,1.8,-16,86.9,0,0,0.01,270,��,4.7,21,,
2012/2/14,1:00:00,293,���k��,2.3,-16,87.7,0,0,0.01,270,��,3.3,26,,
2012/2/14,2:00:00,293,���k��,2.5,-15.9,85.5,0,0,0.01,293,���k��,4,38,,
2012/2/14,3:00:00,293,���k��,2.7,-17.3,86.9,0,0,0.01,270,��,4.5,51,,
2012/2/14,4:00:00,293,���k��,1.9,-15.8,90.6,0,0,0.01,270,��,4.4,19,,
2012/2/14,5:00:00,293,���k��,2,-15.5,89.6,0,0,0.01,315,�k��,3.1,24,,
2012/2/14,6:00:00,293,���k��,2.5,-16.4,89.8,0,0,0.01,270,��,5.3,5,,
2012/2/14,7:00:00,293,���k��,3.7,-15.7,91.3,0,0,0.02,315,�k��,4.3,55,,
2012/2/14,8:00:00,293,���k��,2.5,-12.7,84,0,42,0.16,270,��,4,43,,
2012/2/14,9:00:00,293,���k��,0.8,-9.9,75.5,0,60,0.34,270,��,3.5,10,,
2012/2/14,10:00:00,90,��,1.3,-2.8,78.4,0,60,0.49,90,��,2.1,55,,
2012/2/14,11:00:00,90,��,1.6,-0.9,82.3,0,60,0.59,113,���쓌,2.9,47,,
2012/2/14,12:00:00,68,���k��,2.7,-2,79.6,0,60,0.63,68,���k��,3.9,57,,
2012/2/14,13:00:00,45,�k��,2.5,-1.6,77.8,0,60,0.58,45,�k��,3.5,45,,
2012/2/14,14:00:00,68,���k��,2.4,-0.3,78.7,0,60,0.5,90,��,3.8,5,,
2012/2/14,15:00:00,68,���k��,2.2,-1.4,85.1,0,60,0.36,90,��,4.1,20,,
2012/2/14,16:00:00,68,���k��,1.6,-3.6,89.9,0,54,0.18,68,���k��,2.9,9,,
2012/2/14,17:00:00,270,��,0.6,-7.9,94.9,0,0,0.04,45,�k��,1.6,2,,
2012/2/14,18:00:00,248,���쐼,0.9,-9,93.6,0,0,0.01,248,���쐼,2.1,38,,
2012/2/14,19:00:00,293,���k��,2.2,-11.2,93,0,0,0.01,293,���k��,2.5,56,,
2012/2/14,20:00:00,270,��,2.5,-11.9,90.4,0,0,0.01,270,��,3.3,44,,
2012/2/14,21:00:00,293,���k��,2.6,-10.2,93.8,0,0,0.01,293,���k��,3.5,55,,
2012/2/14,22:00:00,315,�k��,1.6,-8.5,95,0,0,0.01,293,���k��,3.5,0,,
2012/2/14,23:00:00,270,�É�,0.2,-11.8,92.3,0,0,0.01,45,�k��,2.4,4,,
2012/2/14,0:00:00,315,�k��,1,-12.4,91.9,0,0,0.01,293,���k��,2.2,13,,
2012/2/15,1:00:00,293,���k��,1.1,-12.9,91.7,0,0,0.01,270,��,2.5,35,,
2012/2/15,2:00:00,360,�k,1.7,-10,94.4,0,0,0.01,360,�k,2.9,51,,
2012/2/15,3:00:00,360,�k,1.2,-7.2,95,0,0,0.01,68,���k��,3,45,,
2012/2/15,4:00:00,315,�k��,1.2,-5.7,97,0,0,0.01,360,�k,2.5,5,,
2012/2/15,5:00:00,113,���쓌,0.5,-4.8,97.3,0,0,0.01,248,���쐼,7.1,50,,
2012/2/15,6:00:00,293,���k��,1.9,-4,98,0,0,0.01,315,�k��,4.3,39,,
2012/2/15,7:00:00,293,���k��,0.9,-6.6,96.1,0,0,0.02,315,�k��,3.1,14,,
2012/2/15,8:00:00,293,���k��,1.9,-4.6,97.6,0,32,0.14,293,���k��,2.4,53,,
2012/2/15,9:00:00,270,��,0.4,-3.3,98,0.5,28,0.13,315,�k��,6.7,27,,
2012/2/15,10:00:00,225,�쐼,3.5,-0.6,94.3,0.5,53,0.37,225,�쐼,6.1,53,,